Probability
6 26 42 52 48 48 45 42 48 52 52 42 42 35 35 29 29 32 29 29 26 23 26 19 16 16 13 6 6 6 3 3 10 6 10 6 6 3 0 0 0 0 0
6 23 45 52 52 45 52 52 48 45 42 45 39 35 32 32 32 32 29 29 26 19 23 26 23 16 13 6 6 3 3 6 10 6 3 0 3 3 0 3 6 0 0
10 26 39 52 48 48 52 55 39 39 45 45 39 35 32 32 29 35 32 32 32 32 26 23 19 16 6 6 3 3 3 3 3 0 0 0 0 3 0 3 3 3 3
6 23 29 52 45 48 55 45 42 32 35 39 42 35 32 29 23 29 26 29 29 26 19 16 19 13 3 3 3 3 3 3 3 0 0 0 0 0 3 3 0 3 6
6 19 39 48 52 52 48 42 42 32 35 39 39 39 35 29 23 29 29 29 26 26 16 16 13 6 3 3 3 3 3 3 0 0 0 0 0 3 3 3 0 3 6
16 19 35 45 45 48 45 42 39 35 35 35 39 39 32 29 26 26 26 26 23 19 13 13 6 6 3 3 3 3 3 3 0 0 0 0 0 3 0 0 3 3 3
16 26 32 35 45 45 42 42 45 32 35 35 29 32 32 32 29 26 19 19 23 16 16 10 6 6 3 3 3 3 3 0 0 0 0 0 0 0 3 3 0 0 0
13 23 29 35 39 45 45 45 39 32 26 26 23 26 19 26 19 16 19 16 16 13 16 10 6 6 3 3 3 3 0 0 0 0 0 0 0 3 0 0 3 3 3
23 23 32 35 32 35 42 45 39 29 29 29 26 23 19 23 23 16 19 16 13 16 16 10 6 6 3 3 3 0 0 0 0 0 0 0 0 3 0 0 0 3 10
16 23 32 29 23 26 23 26 26 23 23 16 16 10 6 6 13 13 10 13 13 10 13 6 6 6 6 3 0 0 0 0 0 0 0 0 0 0 0 0 0 6 6
6 13 19 26 29 23 3 0 3 3 3 10 10 3 0 3 10 10 3 0 0 3 10 6 6 3 3 0 0 0 0 0 0 0 0 0 0 0 0 0 0 3 3
6 6 10 19 13 10 0 3 0 3 3 3 6 6 3 6 6 6 0 0 0 0 0 3 6 3 0 0 0 0 0 0 0 0 0 0 0 0 0 0 0 3 3
3 3 6 6 6 6 3 3 0 3 10 3 3 3 3 6 6 10 10 3 0 0 0 3 0 0 0 0 0 0 0 0 0 0 0 0 0 3 0 0 0 0 3
0 3 3 3 3 3 3 3 3 0 3 3 3 0 6 10 6 3 6 6 6 6 10 10 3 0 0 0 0 0 0 0 0 0 0 0 0 3 3 0 0 0 0
0 3 3 3 0 3 0 0 0 0 0 3 3 3 6 6 6 0 3 3 3 6 6 6 0 0 0 0 0 0 0 0 0 0 0 0 0 0 0 0 0 0 0
0 0 3 0 0 0 0 0 0 0 0 0 0 0 0 0 0 0 0 0 0 3 6 3 0 0 0 0 0 0 0 0 0 0 0 0 0 0 0 0 0 0 0
0 0 0 0 0 0 0 0 0 0 0 0 0 0 0 0 0 0 0 0 0 0 0 3 0 0 0 0 0 0 0 0 0 0 0 0 0 0 0 0 0 0 0
0 0 0 0 0 0 0 0 0 0 0 0 0 0 0 0 0 0 0 0 0 0 0 0 0 0 0 0 0 0 0 0 0 0 0 0 0 0 0 0 0 0 0
0 0 0 0 0 0 0 0 0 0 0 0 0 0 0 0 0 0 0 0 0 0 0 0 0 0 0 0 0 0 0 0 0 0 0 0 0 0 0 0 0 0 0
0 0 0 0 0 0 0 0 0 0 0 0 0 0 0 0 0 0 0 0 0 0 0 0 0 0 0 0 0 0 0 0 0 0 0 0 0 0 0 0 0 0 0
0 0 0 0 0 0 0 0 0 0 0 0 0 0 0 0 0 0 0 0 0 0 0 0 0 0 0 0 0 0 0 0 0 0 0 0 0 0 0 0 0 0 0
0 0 0 0 0 0 0 0 0 0 0 0 0 0 0 0 0 0 0 0 0 0 0 0 0 0 0 0 0 0 0 0 0 0 0 0 0 0 0 0 0 0 0
0 0 0 0 0 0 0 0 0 0 0 0 0 0 0 0 0 0 0 0 0 0 0 0 0 0 0 0 0 0 0 0 0 0 0 0 0 0 0 0 0 0 0
0 0 0 0 0 0 0 0 0 0 0 0 0 0 0 0 0 0 0 0 0 0 0 0 0 0 0 0 0 0 0 0 0 0 0 0 0 0 0 0 0 0 0
0 0 0 0 0 0 0 0 0 0 0 0 0 0 0 0 0 0 0 0 0 0 0 0 0 0 0 0 0 0 0 0 0 0 0 0 0 0 0 0 0 0 0
0 0 0 0 0 0 0 0 0 0 0 0 0 0 0 0 0 0 0 0 0 0 0 0 0 0 0 0 0 0 0 0 0 0 0 0 0 0 0 0 0 0 0
Height
5859 5860 5861 5862 5863 5864 5865 5865 5866 5866 5867 5867 5867 5868 5868 5868 5869 5869 5869 5870 5870 5870 5870 5870 5870 5870 5870 5870 5870 5869 5869 5869 5868 5868 5868 5867 5867 5866 5865 5865 5864 5863 5862
5855 5856 5857 5859 5860 5861 5862 5863 5863 5864 5865 5865 5865 5866 5866 5867 5867 5867 5868 5868 5868 5869 5869 5869 5869 5869 5869 5868 5868 5868 5867 5867 5867 5866 5866 5866 5865 5864 5864 5863 5862 5861 5861
5850 5852 5853 5855 5856 5858 5859 5860 5861 5861 5862 5863 5863 5864 5864 5865 5865 5865 5866 5866 5866 5867 5867 5867 5867 5867 5867 5867 5867 5866 5866 5866 5865 5865 5864 5864 5863 5862 5862 5861 5860 5859 5859
5845 5847 5849 5850 5852 5854 5855 5857 5858 5858 5859 5860 5861 5862 5862 5863 5863 5863 5864 5864 5865 5865 5865 5865 5866 5866 5866 5866 5865 5865 5864 5864 5863 5863 5862 5861 5861 5860 5860 5859 5858 5857 5857
5838 5841 5843 5845 5847 5849 5851 5852 5854 5855 5856 5857 5858 5859 5860 5860 5861 5861 5862 5862 5862 5863 5863 5863 5864 5864 5864 5864 5863 5863 5862 5862 5861 5861 5860 5859 5859 5858 5857 5857 5856 5855 5854
5832 5835 5837 5840 5842 5844 5846 5848 5850 5851 5852 5853 5855 5856 5857 5857 5858 5859 5859 5860 5860 5861 5861 5861 5861 5862 5862 5862 5861 5861 5860 5860 5859 5858 5857 5857 5856 5856 5855 5854 5854 5853 5852
5825 5828 5831 5834 5836 5839 5841 5843 5845 5846 5848 5849 5851 5852 5853 5854 5855 5856 5856 5857 5857 5858 5858 5858 5859 5859 5859 5859 5859 5858 5858 5857 5857 5856 5855 5855 5854 5853 5853 5852 5851 5851 5850
5818 5821 5824 5827 5830 5832 5835 5837 5839 5841 5843 5845 5846 5848 5849 5850 5851 5852 5853 5854 5854 5855 5855 5856 5856 5856 5856 5856 5856 5856 5855 5855 5854 5853 5853 5852 5851 5851 5850 5849 5849 5848 5847
5810 5813 5816 5820 5823 5826 5829 5831 5834 5836 5838 5840 5842 5843 5845 5846 5847 5849 5850 5850 5851 5852 5852 5852 5853 5853 5853 5853 5853 5853 5852 5852 5851 5851 5850 5849 5849 5848 5847 5846 5846 5845 5844
5801 5805 5809 5812 5816 5819 5822 5825 5828 5830 5832 5834 5837 5838 5840 5841 5843 5844 5845 5846 5847 5848 5848 5849 5849 5849 5850 5850 5850 5850 5849 5848 5848 5847 5847 5846 5846 5845 5844 5843 5842 5842 5841
5792 5796 5800 5805 5808 5812 5815 5818 5821 5824 5826 5828 5831 5833 5835 5836 5838 5839 5841 5842 5843 5844 5844 5845 5845 5846 5846 5846 5846 5846 5845 5845 5844 5844 5844 5843 5842 5842 5841 5840 5839 5838 5837
5784 5788 5792 5796 5800 5804 5807 5810 5814 5817 5820 5822 5825 5827 5829 5831 5832 5834 5835 5837 5838 5839 5840 5841 5841 5841 5842 5842 5842 5842 5841 5841 5841 5840 5840 5839 5838 5838 5837 5836 5835 5834 5833
5776 5780 5784 5789 5793 5796 5799 5803 5807 5810 5813 5816 5819 5821 5823 5825 5826 5828 5830 5831 5833 5834 5835 5836 5836 5837 5837 5837 5837 5837 5837 5837 5836 5836 5836 5835 5834 5834 5833 5832 5831 5830 5829
5768 5773 5777 5781 5785 5789 5792 5796 5799 5803 5806 5809 5812 5814 5817 5819 5821 5822 5824 5826 5827 5829 5830 5831 5831 5832 5832 5833 5832 5832 5832 5832 5832 5831 5831 5830 5830 5829 5828 5827 5826 5825 5824
5760 5765 5769 5774 5778 5781 5785 5788 5792 5796 5799 5802 5805 5808 5810 5812 5815 5816 5818 5820 5822 5823 5824 5825 5826 5826 5827 5827 5827 5827 5827 5827 5827 5826 5826 5825 5825 5824 5823 5822 5821 5820 5819
5753 5757 5762 5766 5770 5774 5778 5781 5785 5788 5792 5795 5798 5801 5804 5806 5808 5810 5812 5814 5816 5817 5818 5819 5820 5821 5821 5822 5822 5822 5821 5821 5821 5821 5820 5820 5819 5818 5818 5817 5816 5815 5814
5745 5750 5755 5759 5763 5767 5770 5774 5778 5781 5785 5788 5791 5794 5797 5799 5802 5804 5806 5808 5809 5811 5812 5813 5814 5815 5815 5816 5816 5816 5816 5815 5815 5815 5814 5814 5813 5812 5812 5811 5810 5809 5807
5738 5743 5748 5752 5756 5760 5763 5767 5771 5774 5777 5781 5784 5787 5790 5792 5794 5797 5799 5801 5803 5804 5806 5807 5808 5809 5809 5810 5810 5810 5809 5809 5809 5808 5808 5807 5807 5806 5805 5804 5803 5802 5801
5732 5736 5741 5745 5749 5753 5756 5760 5763 5766 5770 5773 5777 5780 5783 5785 5787 5790 5792 5794 5796 5798 5799 5800 5801 5802 5802 5803 5803 5803 5803 5802 5802 5801 5801 5800 5800 5799 5798 5797 5796 5795 5794
5725 5730 5735 5738 5742 5746 5750 5753 5756 5759 5762 5766 5769 5772 5775 5778 5780 5783 5785 5787 5789 5791 5792 5793 5794 5795 5795 5796 5796 5796 5795 5795 5795 5794 5794 5793 5792 5791 5790 5789 5788 5787 5786
5719 5724 5729 5733 5736 5740 5743 5747 5750 5753 5756 5759 5762 5765 5768 5771 5773 5776 5778 5780 5782 5783 5785 5786 5786 5787 5788 5788 5788 5788 5788 5788 5787 5786 5786 5785 5784 5783 5782 5781 5780 5779 5778
5715 5719 5723 5727 5731 5734 5737 5740 5743 5746 5749 5752 5755 5758 5760 5763 5766 5768 5770 5772 5774 5775 5776 5777 5778 5779 5779 5780 5780 5780 5780 5780 5779 5778 5777 5776 5776 5775 5774 5772 5771 5770 5769
5711 5714 5718 5722 5725 5728 5731 5734 5737 5740 5742 5745 5747 5750 5753 5756 5758 5760 5762 5764 5765 5767 5768 5769 5770 5771 5771 5771 5771 5771 5771 5771 5770 5770 5768 5767 5766 5765 5764 5763 5762 5760 5759
5707 5710 5713 5716 5720 5723 5725 5728 5730 5733 5736 5738 5740 5743 5746 5748 5750 5752 5754 5756 5757 5759 5760 5761 5761 5762 5762 5762 5762 5761 5762 5761 5761 5760 5759 5758 5757 5756 5754 5753 5752 5750 5749
5703 5705 5708 5711 5714 5717 5720 5722 5724 5727 5729 5731 5733 5736 5738 5740 5743 5744 5746 5747 5749 5750 5751 5752 5752 5753 5753 5753 5753 5752 5752 5751 5750 5750 5750 5748 5747 5746 5744 5743 5741 5740 5738
5699 5701 5704 5707 5709 5712 5714 5716 5718 5720 5722 5724 5726 5728 5731 5733 5734 5736 5737 5739 5740 5741 5742 5742 5742 5742 5743 5743 5742 5742 5742 5741 5740 5740 5739 5738 5737 5736 5734 5732 5730 5729 5727
Wind_Speed
21 19 18 16 15 14 13 12 11 10 10 9 9 9 8 8 7 7 6 6 5 4 4 3 3 3 2 3 3 4 5 6 6 6 6 7 7 7 7 8 8 8 9
24 22 21 19 18 16 15 15 14 12 11 11 10 10 9 9 8 8 7 7 6 5 5 4 4 4 3 3 4 5 6 6 7 7 7 8 8 9 9 9 9 9 9
26 25 23 22 21 19 18 17 16 14 13 12 12 11 11 10 10 9 8 8 7 6 6 5 5 5 4 4 5 5 6 7 8 8 8 9 9 9 9 10 10 10 10
29 28 26 25 23 22 21 19 18 16 15 15 14 13 13 12 11 10 9 9 8 7 7 6 6 6 6 6 6 6 7 8 9 9 9 9 9 9 10 10 10 10 11
31 30 29 27 26 24 23 22 21 19 17 17 16 15 15 14 13 12 11 10 10 9 8 8 8 8 8 8 8 8 8 9 10 10 10 10 10 10 10 11 11 11 11
32 31 31 30 28 27 25 24 23 22 20 19 18 18 17 16 15 14 12 11 11 10 10 10 10 10 9 9 9 9 9 10 10 10 10 10 10 10 10 11 11 11 12
34 33 32 32 31 29 28 26 25 24 23 21 20 20 19 18 17 16 15 13 13 12 12 11 11 11 11 10 10 10 10 10 10 11 11 11 11 11 11 11 12 12 12
36 35 34 33 32 31 30 29 27 26 25 23 22 22 21 20 19 18 17 16 15 14 13 13 13 13 13 12 12 12 12 12 11 11 11 11 12 12 12 12 13 13 13
37 37 36 35 34 33 31 30 29 28 27 25 24 23 23 22 21 20 19 18 17 16 15 14 14 14 14 14 14 13 13 13 13 12 12 12 12 13 13 14 14 14 15
39 38 38 37 36 34 33 32 31 30 29 28 27 25 25 24 23 22 21 20 19 18 17 16 16 16 16 15 15 15 14 15 15 14 14 14 14 14 14 14 15 15 16
37 38 39 38 37 36 35 34 33 32 30 29 28 27 27 26 25 25 23 22 21 20 19 18 17 17 17 17 17 16 16 16 16 16 16 16 16 16 16 16 16 17 17
36 37 39 39 38 37 36 35 35 33 32 31 30 28 28 28 27 26 25 24 23 22 21 20 19 18 18 18 18 18 18 17 17 17 17 17 17 18 18 18 18 19 19
36 37 38 39 39 37 36 37 36 36 34 33 31 30 30 29 29 28 27 26 25 24 23 22 21 21 20 20 20 20 20 19 19 19 19 19 19 20 20 20 20 20 20
37 38 39 39 39 37 36 37 36 36 36 35 33 32 31 30 30 29 28 27 26 25 24 24 23 23 22 22 22 22 22 21 21 21 21 21 21 21 21 22 22 22 22
38 39 40 40 39 38 37 36 36 35 35 34 32 33 31 30 30 30 29 28 27 26 25 25 24 24 24 23 23 23 23 23 23 22 22 23 23 23 23 23 23 24 24
36 38 39 39 39 38 37 36 36 36 35 34 34 33 32 31 31 30 30 30 29 28 27 27 26 25 25 25 25 25 25 25 25 24 24 24 24 24 24 25 25 25 26
35 37 38 38 38 38 38 38 38 37 36 36 34 33 33 32 32 32 31 30 29 29 29 29 28 27 27 26 27 27 27 26 27 27 26 26 26 27 27 27 27 27 28
34 36 37 37 37 38 38 38 38 38 38 37 36 34 33 33 33 33 32 31 30 30 30 30 30 29 28 28 28 28 28 28 28 28 28 28 28 29 29 29 30 30 30
33 35 35 35 35 36 37 37 38 38 37 36 36 35 33 32 32 33 33 31 31 31 31 31 31 30 30 29 29 29 30 30 30 30 30 30 30 31 31 31 32 32 32
30 32 32 33 34 34 34 35 36 36 36 35 36 36 35 34 33 33 33 32 32 32 32 32 32 31 30 30 31 31 31 32 32 32 32 33 33 32 32 33 34 34 34
28 29 29 31 32 32 32 32 33 35 36 36 36 36 36 36 35 35 35 34 33 32 32 33 33 32 32 31 32 32 33 34 34 34 35 35 34 34 34 35 36 36 37
25 26 26 27 29 30 31 31 32 33 35 36 36 37 37 36 35 35 35 34 34 34 34 34 34 33 34 34 34 34 34 35 36 36 37 37 37 37 37 38 38 39 39
25 24 24 25 27 29 30 30 30 32 33 34 35 36 36 36 35 35 35 35 35 36 36 36 36 36 36 36 37 37 38 37 37 37 37 38 39 39 40 40 40 41 41
23 24 24 25 27 28 29 29 29 29 30 32 34 35 36 36 36 35 36 36 36 37 37 37 37 38 38 38 39 39 39 39 38 38 38 39 40 40 41 42 42 42 42
23 24 22 23 23 25 27 28 29 29 29 31 34 35 36 36 37 37 37 37 37 38 38 39 39 40 40 40 40 41 41 41 40 40 40 41 41 42 43 43 44 44 44
22 23 23 22 22 24 26 28 28 28 28 31 33 35 36 36 37 38 38 38 39 39 40 40 40 40 41 41 42 42 42 42 42 42 42 42 42 43 44 44 45 45 45
Wind_Direction
238 236 234 234 234 235 234 233 233 234 234 231 227 222 218 214 212 210 210 210 207 208 212 216 222 231 256 279 285 285 286 287 291 297 302 305 307 308 308 308 311 314 314
239 237 235 234 234 235 234 235 235 235 235 234 230 226 223 221 218 216 215 214 215 218 224 227 232 242 261 277 287 290 290 289 291 295 298 299 301 303 304 303 304 307 310
239 238 236 236 235 235 235 235 236 236 235 235 231 229 227 225 223 222 220 219 220 224 228 233 241 249 259 273 284 290 291 290 291 294 297 299 299 300 300 302 302 304 306
239 239 237 236 235 234 234 235 235 235 236 236 233 230 229 228 226 226 226 225 225 227 232 240 246 252 259 271 279 285 288 291 291 293 296 298 299 300 300 300 300 302 304
237 238 238 236 235 235 234 234 234 234 236 237 235 232 231 231 230 228 229 230 231 232 237 244 249 253 261 269 276 282 286 290 292 293 294 296 297 298 299 299 299 301 302
237 236 236 236 235 235 234 234 234 235 236 237 236 235 234 234 233 232 233 234 235 237 240 245 250 255 261 267 274 280 285 288 291 292 292 292 292 294 296 297 297 299 301
236 235 235 235 235 235 234 234 234 235 236 236 237 237 236 235 235 235 235 237 238 240 243 246 250 256 261 266 272 277 282 286 289 289 288 288 289 291 293 293 293 294 298
235 234 234 234 234 234 234 234 235 236 236 236 237 237 236 237 236 237 238 240 241 243 245 247 251 257 262 266 271 275 278 282 286 287 288 287 287 289 290 290 289 289 292
234 233 232 233 233 234 234 234 234 236 237 237 238 238 237 237 237 238 240 242 244 244 245 249 252 257 262 266 270 274 277 280 283 283 285 285 287 289 288 287 288 288 289
233 231 230 231 231 232 233 233 234 236 236 237 238 239 239 239 238 239 241 244 245 246 248 250 254 258 262 267 270 272 275 278 279 280 280 281 284 288 288 287 287 287 287
232 229 227 229 230 231 231 232 234 235 236 237 238 239 240 241 240 241 242 244 246 247 249 250 254 258 262 265 269 271 273 276 277 278 278 280 282 285 286 287 286 286 287
230 228 227 227 228 230 230 230 232 233 234 236 237 239 241 242 242 242 243 245 245 246 248 250 253 258 262 265 268 269 271 274 275 276 277 279 280 283 284 285 286 286 287
229 227 227 227 228 229 230 230 232 233 234 235 237 239 241 242 243 242 243 244 245 245 247 250 253 257 261 265 267 268 270 272 273 274 276 278 279 282 283 284 285 286 286
227 226 227 227 227 230 231 229 229 230 232 234 236 238 240 242 243 243 243 243 245 246 249 251 253 256 261 265 267 268 269 270 272 273 275 277 279 280 282 283 284 284 285
227 227 227 226 228 230 232 230 230 232 233 233 236 236 239 241 243 243 242 243 245 246 248 251 254 256 260 264 266 267 268 269 270 271 274 277 278 279 280 282 283 283 283
227 227 228 228 229 231 233 233 232 233 234 234 235 235 238 240 242 243 242 244 245 247 249 251 254 256 259 262 264 267 268 268 269 271 273 275 278 279 279 281 281 282 282
224 224 225 228 230 231 232 233 233 233 234 234 234 236 237 239 241 243 243 244 246 247 249 252 254 257 258 261 264 267 267 268 268 269 272 274 276 278 279 280 281 281 281
222 222 223 226 227 229 232 233 233 235 235 235 235 237 238 240 241 241 243 245 247 249 251 253 256 257 258 261 264 266 267 267 268 270 272 274 276 278 279 279 279 280 280
220 221 222 226 226 229 231 233 234 234 236 237 237 238 239 240 243 243 244 245 247 248 250 253 255 258 259 261 264 266 267 268 270 271 273 274 276 277 279 279 279 280 280
220 220 223 227 227 229 231 234 235 236 238 240 239 239 241 242 243 245 245 246 247 249 251 253 255 258 260 262 264 266 268 270 271 272 273 275 276 277 278 279 280 279 279
220 219 225 228 228 229 233 236 238 239 240 241 240 241 242 243 245 246 247 248 249 251 253 254 256 258 261 264 266 268 269 271 272 273 274 275 275 276 277 279 280 281 280
221 221 225 228 231 234 238 240 242 242 243 243 242 241 242 243 247 249 251 251 252 253 255 256 258 261 264 266 268 270 271 273 274 274 274 275 275 275 276 278 279 280 281
223 224 229 233 234 237 238 240 242 245 246 245 245 243 244 246 249 252 252 252 255 257 258 258 261 263 265 267 268 270 271 273 276 275 276 276 276 276 277 278 279 280 280
226 229 234 237 239 240 240 241 242 245 246 245 244 244 246 249 251 252 253 254 256 257 259 261 262 264 266 267 269 271 273 273 275 276 277 277 277 276 277 278 279 278 279
232 235 237 235 239 241 243 245 244 246 247 246 245 246 247 249 251 252 253 255 256 258 259 261 263 264 266 268 270 271 273 274 275 276 276 277 276 276 277 278 279 278 278
237 237 240 239 240 242 244 247 247 248 249 248 248 248 249 250 253 254 254 256 258 259 260 262 264 265 266 268 269 271 272 273 275 276 275 276 276 276 277 278 278 277 278